Hourly Weather Holotky

Today, 11 April, Sunday

Time Temperature Precipitation Wind Pressure Humidity
00:00 +4°C° 0 mm 3 mps 739 mmHg 60%
01:00 +4°C° 0 mm 3 mps 739 mmHg 61%
02:00 +4°C° 0 mm 3 mps 739 mmHg 62%
03:00 +3°C° 0 mm 3 mps 739 mmHg 63%
04:00 +3°C° 0 mm 3 mps 739 mmHg 64%
05:00 +3°C° 0 mm 3 mps 739 mmHg 65%
06:00 +4°C° 0 mm 3 mps 740 mmHg 62%
07:00 +5°C° 0 mm 4 mps 740 mmHg 59%
08:00 +6°C° 0 mm 4 mps 740 mmHg 56%
09:00 +8°C° 0 mm 5 mps 740 mmHg 51%
10:00 +10°C° 0 mm 6 mps 740 mmHg 47%
11:00 +11°C° 0 mm 7 mps 740 mmHg 42%
12:00 +13°C° 0 mm 6 mps 740 mmHg 40%
13:00 +13°C° 0 mm 6 mps 740 mmHg 37%
14:00 +14°C° 0 mm 6 mps 740 mmHg 35%
15:00 +14°C° 0 mm 6 mps 739 mmHg 36%
16:00 +14°C° 0 mm 6 mps 739 mmHg 38%
17:00 +14°C° 0 mm 5 mps 739 mmHg 39%
18:00 +12°C° 0 mm 5 mps 739 mmHg 43%
19:00 +9°C° 0 mm 5 mps 739 mmHg 47%
20:00 +8°C° 0 mm 5 mps 740 mmHg 52%
21:00 +7°C° 0 mm 4 mps 740 mmHg 53%
22:00 +6°C° 0 mm 4 mps 740 mmHg 55%
23:00 +5°C° 0 mm 3 mps 740 mmHg 57%

Tomorrow, 12 April, Monday

Time Temperature Precipitation Wind Pressure Humidity
00:00 +5°C° 0 mm 4 mps 740 mmHg 59%
01:00 +4°C° 0 mm 4 mps 740 mmHg 60%
02:00 +4°C° 0 mm 4 mps 739 mmHg 62%
03:00 +4°C° 0 mm 4 mps 739 mmHg 63%
04:00 +3°C° 0 mm 3 mps 739 mmHg 65%
05:00 +3°C° 0 mm 3 mps 739 mmHg 66%
06:00 +4°C° 0 mm 4 mps 739 mmHg 62%
07:00 +6°C° 0 mm 4 mps 739 mmHg 59%
08:00 +7°C° 0 mm 4 mps 739 mmHg 55%
09:00 +10°C° 0 mm 4 mps 739 mmHg 50%
10:00 +11°C° 0 mm 4 mps 739 mmHg 45%
11:00 +13°C° 0 mm 4 mps 739 mmHg 40%
12:00 +14°C° 0 mm 4 mps 738 mmHg 38%
13:00 +15°C° 0 mm 4 mps 738 mmHg 37%
14:00 +16°C° 0 mm 3 mps 737 mmHg 35%
15:00 +16°C° 0 mm 3 mps 737 mmHg 35%
16:00 +16°C° 0 mm 3 mps 737 mmHg 35%
17:00 +17°C° 0 mm 3 mps 737 mmHg 36%
18:00 +14°C° 0 mm 3 mps 737 mmHg 41%
19:00 +12°C° 0 mm 3 mps 737 mmHg 46%
20:00 +12°C° 0 mm 2 mps 737 mmHg 51%
21:00 +10°C° 0 mm 2 mps 737 mmHg 53%
22:00 +9°C° 0 mm 2 mps 737 mmHg 55%
23:00 +9°C° 0 mm 2 mps 737 mmHg 57%

Day after tomorrow, 13 April, Tuesday

Time Temperature Precipitation Wind Pressure Humidity
00:00 +8°C° 0 mm 2 mps 736 mmHg 58%
01:00 +8°C° 0 mm 2 mps 736 mmHg 60%
02:00 +8°C° 0 mm 2 mps 736 mmHg 61%
03:00 +8°C° 0 mm 1 mps 736 mmHg 62%
04:00 +8°C° 0 mm 1 mps 736 mmHg 62%
05:00 +8°C° 0 mm 1 mps 736 mmHg 62%
06:00 +9°C° 0 mm 1 mps 736 mmHg 60%
07:00 +11°C° 0 mm 1 mps 736 mmHg 57%
08:00 +12°C° 0 mm 1 mps 736 mmHg 54%
09:00 +13°C° 0 mm 1 mps 736 mmHg 49%
10:00 +15°C° 0 mm 2 mps 736 mmHg 45%
11:00 +16°C° 0 mm 2 mps 735 mmHg 40%
12:00 +17°C° 0 mm 2 mps 735 mmHg 39%
13:00 +17°C° 0 mm 2 mps 735 mmHg 37%
14:00 +18°C° 0 mm 2 mps 734 mmHg 36%
15:00 +18°C° 0 mm 2 mps 734 mmHg 37%
16:00 +18°C° 0 mm 2 mps 734 mmHg 38%
17:00 +17°C° 0 mm 3 mps 733 mmHg 40%
18:00 +16°C° 0 mm 3 mps 733 mmHg 48%
19:00 +13°C° 0 mm 3 mps 733 mmHg 57%
20:00 +11°C° 0 mm 3 mps 733 mmHg 66%
21:00 +11°C° 0 mm 3 mps 733 mmHg 71%
22:00 +10°C° 0 mm 2 mps 733 mmHg 76%
23:00 +10°C° 0 mm 2 mps 733 mmHg 81%

14 April, Wednesday

Time Temperature Precipitation Wind Pressure Humidity
00:00 +10°C° 0.1 mm 2 mps 732 mmHg 83%
01:00 +11°C° 0.1 mm 1 mps 732 mmHg 86%
02:00 +10°C° 0.1 mm 1 mps 732 mmHg 88%
03:00 +10°C° 0.6 mm 1 mps 732 mmHg 90%
04:00 +10°C° 0.6 mm 1 mps 731 mmHg 92%
05:00 +9°C° 0.6 mm 2 mps 731 mmHg 94%
06:00 +9°C° 1 mm 2 mps 731 mmHg 94%
07:00 +9°C° 1 mm 2 mps 731 mmHg 95%
08:00 +9°C° 1 mm 3 mps 731 mmHg 96%
09:00 +8°C° 1.1 mm 3 mps 731 mmHg 96%
10:00 +8°C° 1.1 mm 3 mps 731 mmHg 95%
11:00 +8°C° 1.1 mm 3 mps 731 mmHg 95%
12:00 +8°C° 0.7 mm 3 mps 731 mmHg 94%
13:00 +8°C° 0.7 mm 3 mps 731 mmHg 94%
14:00 +8°C° 0.7 mm 3 mps 731 mmHg 94%
15:00 +8°C° 0.5 mm 3 mps 731 mmHg 93%
16:00 +8°C° 0.5 mm 3 mps 731 mmHg 93%
17:00 +7°C° 0.5 mm 3 mps 731 mmHg 93%
18:00 +7°C° 0.1 mm 3 mps 731 mmHg 93%
19:00 +7°C° 0.1 mm 3 mps 731 mmHg 93%
20:00 +7°C° 0.1 mm 2 mps 731 mmHg 93%
21:00 +7°C° 0.1 mm 2 mps 731 mmHg 94%
22:00 +7°C° 0.1 mm 2 mps 731 mmHg 94%
23:00 +6°C° 0.1 mm 2 mps 731 mmHg 94%

15 April, Thursday

Time Temperature Precipitation Wind Pressure Humidity
00:00 +6°C° 0 mm 2 mps 731 mmHg 94%
01:00 +6°C° 0 mm 2 mps 731 mmHg 95%
02:00 +7°C° 0 mm 1 mps 731 mmHg 95%
03:00 +7°C° 0 mm 1 mps 731 mmHg 95%
04:00 +7°C° 0 mm 1 mps 731 mmHg 95%
05:00 +7°C° 0 mm 1 mps 732 mmHg 95%
06:00 +7°C° 0.1 mm 1 mps 732 mmHg 94%
07:00 +7°C° 0.1 mm 1 mps 732 mmHg 93%
08:00 +7°C° 0.1 mm 1 mps 732 mmHg 92%
09:00 +8°C° 0.3 mm 1 mps 732 mmHg 92%
10:00 +8°C° 0.3 mm 1 mps 732 mmHg 91%
11:00 +7°C° 0.3 mm 2 mps 733 mmHg 91%
12:00 +7°C° 0.1 mm 2 mps 733 mmHg 90%
13:00 +7°C° 0.1 mm 2 mps 733 mmHg 89%
14:00 +7°C° 0.1 mm 2 mps 733 mmHg 88%
15:00 +7°C° 0.1 mm 2 mps 733 mmHg 89%
16:00 +7°C° 0.1 mm 2 mps 733 mmHg 90%
17:00 +7°C° 0.1 mm 2 mps 733 mmHg 90%
18:00 +7°C° 0 mm 2 mps 733 mmHg 91%
19:00 +6°C° 0 mm 2 mps 733 mmHg 93%
20:00 +5°C° 0 mm 3 mps 733 mmHg 94%
21:00 +5°C° 0 mm 3 mps 733 mmHg 94%
22:00 +5°C° 0 mm 3 mps 733 mmHg 95%
23:00 +5°C° 0 mm 3 mps 733 mmHg 95%

16 April, Friday

Time Temperature Precipitation Wind Pressure Humidity
00:00 +5°C° 0 mm 3 mps 733 mmHg 96%
01:00 +5°C° 0 mm 3 mps 732 mmHg 96%
02:00 +5°C° 0 mm 4 mps 732 mmHg 96%
03:00 +5°C° 0 mm 4 mps 732 mmHg 96%
04:00 +5°C° 0 mm 4 mps 732 mmHg 95%
05:00 +5°C° 0 mm 5 mps 732 mmHg 95%
06:00 +3°C° 0 mm 5 mps 733 mmHg 94%
07:00 +3°C° 0 mm 5 mps 733 mmHg 92%
08:00 +3°C° 0 mm 6 mps 733 mmHg 91%
09:00 +4°C° 0 mm 6 mps 733 mmHg 88%
10:00 +5°C° 0 mm 7 mps 733 mmHg 84%
11:00 +6°C° 0 mm 7 mps 734 mmHg 81%
12:00 +6°C° 0.3 mm 7 mps 734 mmHg 82%
13:00 +8°C° 0.3 mm 7 mps 734 mmHg 82%
14:00 +8°C° 0.3 mm 7 mps 734 mmHg 83%
15:00 +8°C° 0.4 mm 7 mps 734 mmHg 86%
16:00 +6°C° 0.4 mm 7 mps 734 mmHg 90%
17:00 +6°C° 0.4 mm 7 mps 734 mmHg 93%
18:00 +6°C° 0.7 mm 7 mps 734 mmHg 94%
19:00 +7°C° 0.7 mm 6 mps 735 mmHg 94%
20:00 +7°C° 0.7 mm 6 mps 735 mmHg 95%
21:00 +7°C° 0.4 mm 6 mps 735 mmHg 95%
22:00 +7°C° 0.4 mm 5 mps 736 mmHg 95%
23:00 +7°C° 0.4 mm 5 mps 736 mmHg 96%
Show more